Regional Weather Roundup
Issued by NWS

Home | Current Version | Previous Version | Text Only | Print | Product List | Glossary On
Versions: 1 2 3 4 5 6 7 8 9 10 11 12 13 14 15 16 17 18 19 20 21 22 23 24 25 26 27 28 29 30 31 32 33 34 35 36 37 38 39 40 41 42 43 44 45 46 47 48 49 50
000
ASUS43 KLMK 311910
RWRKY
KENTUCKY REGIONAL WEATHER ROUNDUP
NATIONAL WEATHER SERVICE LOUISVILLE KY
300 PM EDT FRI JUL 31 2015

NOTE "FAIR" INDICATES FEW OR NO CLOUDS BELOW 12,000 FEET
WITH NO SIGNIFICANT WEATHER AND/OR OBSTRUCTIONS TO VISIBILITY.

KYZ001>023-026-027-061>063-070>075-312000-
WESTERN AND SOUTH CENTRAL KENTUCKY

CITY           SKY/WX    TMP DP  RH WIND       PRES   REMARKS
PADUCAH        SUNNY     89  68  49 N9        30.06F HX  93
HENDERSON      SUNNY     88  66  48 W6        30.05F HX  90
OWENSBORO      MOSUNNY   87  66  49 N8        30.06F
HOPKINSVILLE   SUNNY     87  67  52 N8        30.06F
BOWLING GREEN  SUNNY     89  60  37 N9        30.06F
GLASGOW        MOSUNNY  N/A N/A N/A SE3       30.06F
$$

KYZ024-025-028>034-038-045-046-053-312000-
NORTH CENTRAL KENTUCKY

CITY           SKY/WX    TMP DP  RH WIND       PRES   REMARKS
LOUISVILLE/SDF MOSUNNY   90  56  31 NW9       30.03F
LOUISVILLE/LOU SUNNY     90  55  30 N8        30.04F
FORT KNOX      MOSUNNY   85  62  46 VRB6      30.04F
$$

KYZ035>037-039>044-047>052-055>060-089>105-312000-
NORTHEAST KENTUCKY

CITY           SKY/WX    TMP DP  RH WIND       PRES   REMARKS
LEXINGTON      MOSUNNY   86  61  42 VRB3      30.05F
COVINGTON      MOSUNNY   87  55  33 NW10G20   30.02F
FRANKFORT      MOSUNNY   86  61  42 VRB6      30.04F
$$

KYZ054-064>069-076>088-106>120-312000-
SOUTHEAST KENTUCKY

CITY           SKY/WX    TMP DP  RH WIND       PRES   REMARKS
JACKSON        MOSUNNY   83  57  41 SW5       30.07F
LONDON         SUNNY     86  56  35 VRB3      30.07F
SOMERSET       SUNNY     82  52  34 N5        30.08S
MIDDLESBORO    MOSUNNY   83  58  41 N7        30.07F
MONTICELLO     CLEAR     87  60  40 CALM      30.10F
$$




USA.gov is the U.S. government's official web portal to all federal, state and local government web resources and services.